Dewpoint
33 33 33 33 33 34 34 34 34 34 34 34 35 35 37 37 37 36 37 37 38 38 37 37 38 38 38 38 38 39 40 39 39 39 40 40 40 39 38 38 38 38 38 38 38 38 38 38 38 38 38 39 40 40 40 40 39 39 38 37 37 38 38 38 38 38 39 40 40 41 42 41 40 39 39 39 40 41 42 42 41 39 38 38 38 38 38 38 38 38 38 39 40 42 42 39 38 38 38 38 37 36 35
33 33 33 33 33 33 33 33 33 33 33 33 33 34 35 36 36 36 36 37 37 37 37 37 37 37 37 37 38 38 38 38 38 38 38 38 38 38 38 37 37 38 38 38 38 37 38 38 38 37 37 38 38 39 39 39 38 38 38 37 36 37 38 38 38 38 38 39 40 40 41 42 41 39 39 39 40 41 41 41 41 38 38 38 37 37 38 38 39 40 40 40 41 43 44 42 39 37 36 36 36 36 36
33 33 33 33 33 33 33 33 32 33 32 33 33 33 34 34 35 35 36 36 36 36 36 36 36 36 36 37 37 37 37 37 37 38 38 38 38 38 37 37 37 37 37 37 37 36 38 38 38 37 37 37 38 38 38 38 38 38 38 36 36 36 37 37 38 38 38 38 39 39 40 40 40 39 39 39 39 40 41 41 40 38 37 38 38 37 38 40 41 42 42 42 42 42 43 43 40 37 35 35 35 36 37
32 32 32 32 32 32 32 32 32 34 32 32 32 33 33 33 34 34 35 35 35 36 36 35 35 35 36 36 36 36 35 35 36 38 37 37 37 37 37 37 36 37 37 37 36 36 37 38 38 37 37 37 37 38 38 38 38 38 37 36 35 34 35 36 37 37 37 38 38 39 39 39 38 38 38 38 38 38 40 41 40 38 38 38 39 40 41 42 42 42 41 42 42 41 41 42 42 40 37 37 37 38 38
32 31 31 31 31 31 32 32 32 32 31 31 31 33 32 32 32 33 33 33 34 35 35 35 34 35 35 35 35 35 35 36 36 35 35 35 36 38 37 36 35 36 36 36 36 36 37 37 38 38 37 37 37 38 38 38 37 37 37 36 35 33 34 35 36 36 37 37 38 38 38 38 38 38 38 38 37 38 39 40 40 40 40 39 40 41 41 42 42 42 42 41 41 39 39 40 40 41 40 39 38 36 38
31 31 31 31 31 31 31 31 31 31 30 31 31 32 31 31 31 31 32 32 33 34 34 34 34 34 34 35 35 35 35 37 37 34 34 34 35 36 36 36 35 35 35 36 36 35 36 36 37 37 36 35 35 36 36 37 37 37 37 36 35 33 33 33 34 35 36 36 37 37 37 37 37 38 38 38 38 38 39 39 40 40 39 39 39 40 40 41 42 42 42 42 41 40 40 39 38 38 38 37 35 35 35
31 31 31 31 31 31 31 30 30 30 30 30 31 31 31 31 31 31 31 32 33 34 34 33 33 33 34 34 34 34 34 37 39 37 35 34 35 36 36 35 35 35 35 35 35 34 35 35 35 35 35 34 34 34 35 35 36 36 36 36 36 34 33 32 32 33 35 35 36 37 37 37 37 37 37 38 38 38 39 39 39 40 39 38 38 39 40 40 41 42 41 41 41 40 39 37 36 35 34 33 33 34 36
31 31 31 31 31 31 30 31 31 31 30 30 30 31 30 30 30 30 30 31 32 33 33 33 33 33 33 33 33 34 34 38 39 38 35 35 36 36 35 35 34 34 34 34 34 33 34 34 33 34 34 34 34 33 34 34 35 35 35 36 35 35 35 34 33 32 33 34 35 36 36 36 36 36 36 37 38 38 38 38 39 40 39 38 38 38 38 39 39 40 40 40 40 39 38 38 36 33 32 32 33 33 35
31 31 31 31 31 31 31 32 32 31 30 30 30 30 30 30 30 30 30 30 31 32 32 32 32 32 32 33 33 33 33 35 37 36 35 35 35 34 34 34 34 33 33 33 33 33 33 33 33 33 32 33 33 34 35 36 36 36 36 36 35 35 36 36 35 33 33 34 34 35 35 36 36 36 36 36 37 37 38 38 39 40 39 38 38 38 38 38 38 38 39 39 39 38 38 37 36 34 32 32 32 32 33
31 31 31 31 31 31 31 32 32 31 30 30 30 30 30 30 30 30 30 30 31 31 31 31 31 31 31 31 32 32 32 33 34 35 35 35 34 33 33 33 33 33 33 33 33 33 33 33 33 33 32 32 33 33 34 34 35 35 35 35 35 34 36 36 36 35 35 35 35 35 34 35 35 35 35 36 36 37 37 38 38 39 39 38 38 37 38 38 38 38 38 38 38 38 37 36 35 34 33 32 31 30 29
30 30 31 31 31 31 31 32 32 31 30 30 30 30 30 30 30 30 30 30 30 30 30 30 30 30 30 30 30 31 31 32 33 34 35 34 33 33 32 32 32 32 32 32 32 32 32 32 32 33 33 33 33 32 33 34 34 35 34 34 35 34 35 35 35 35 36 36 36 35 34 34 34 35 35 36 36 37 37 37 38 38 39 38 38 38 38 38 38 38 38 38 37 36 37 36 35 36 35 33 31 29 28
29 30 30 30 30 30 31 31 31 32 31 31 30 30 30 30 30 30 30 30 30 30 30 30 30 30 30 30 30 29 30 30 32 34 34 34 33 32 32 32 32 32 32 31 31 31 31 31 32 33 33 33 33 33 33 34 35 35 34 34 35 34 34 34 35 35 36 36 36 36 35 34 34 34 35 36 37 37 37 38 38 38 39 38 38 38 38 38 38 38 38 37 37 36 36 36 36 36 35 33 31 29 29
29 29 30 30 30 30 30 31 31 32 31 31 31 31 31 30 30 30 30 30 30 31 30 30 30 30 31 32 31 29 29 29 30 33 33 33 32 32 32 32 31 31 32 32 31 31 30 30 31 31 31 32 33 33 33 33 33 33 33 34 34 35 34 34 34 35 35 36 37 37 36 35 34 34 34 35 36 37 37 37 38 39 40 39 38 38 38 38 37 36 35 36 37 35 34 35 35 35 33 32 30 29 29
28 29 29 29 29 29 30 30 31 32 32 31 31 31 30 30 30 29 29 30 30 31 30 30 30 30 31 32 32 30 30 29 29 30 33 33 32 31 31 31 31 31 33 33 31 31 30 30 30 30 31 32 33 32 33 33 32 32 33 33 34 34 34 34 34 34 35 36 37 38 37 36 35 35 34 35 36 36 37 37 38 39 40 40 38 38 38 37 36 35 34 35 35 34 33 33 33 33 33 32 30 30 29
27 28 28 29 29 29 29 30 30 31 32 32 31 31 31 30 30 29 29 29 29 30 31 31 30 30 30 31 31 30 30 30 30 29 31 32 32 32 31 30 30 30 31 31 31 31 31 31 31 31 33 34 34 32 32 31 31 31 32 32 33 33 34 34 34 33 35 36 37 38 37 37 36 36 35 35 35 35 36 37 38 39 39 38 37 36 36 35 34 33 33 33 33 32 32 32 32 32 32 32 32 31 30
26 27 28 28 29 29 29 29 29 31 32 32 32 32 32 31 30 30 29 29 29 29 30 30 30 29 29 29 29 29 29 31 32 30 29 31 33 33 31 30 30 30 30 30 30 32 33 32 31 31 32 33 32 31 31 30 30 30 30 31 32 33 34 34 34 34 35 36 36 37 37 37 36 36 35 34 34 34 35 35 36 38 38 36 34 33 33 33 33 33 33 32 31 31 31 30 30 31 32 33 33 31 29
26 27 27 28 29 29 29 29 29 30 31 32 31 31 32 32 31 30 29 29 29 29 29 30 31 29 29 29 29 29 29 29 30 30 29 29 30 32 31 30 29 29 29 29 29 30 30 30 30 30 30 30 30 30 30 30 29 29 30 31 31 32 33 34 34 35 34 35 35 36 36 36 37 36 35 34 33 33 34 34 36 37 36 34 32 32 32 32 32 33 32 32 31 30 30 30 30 30 31 32 32 31 29
27 27 27 28 29 29 29 29 29 29 30 31 30 29 29 29 29 29 29 28 28 28 29 29 30 29 29 29 29 29 29 29 29 29 29 29 29 29 29 29 29 29 29 29 29 29 29 29 29 29 29 29 29 29 29 29 29 29 29 30 31 31 33 33 34 34 35 34 34 35 35 36 36 36 35 34 33 33 33 34 35 37 35 33 31 31 32 32 32 32 32 32 32 32 31 30 30 30 30 31 31 30 29
27 26 27 28 29 29 29 29 28 28 29 29 29 29 29 29 28 28 27 27 27 27 28 28 29 29 29 29 29 29 29 29 29 29 29 29 29 29 29 28 28 29 29 29 29 29 29 28 28 28 28 28 29 29 28 29 29 29 29 29 30 31 32 33 33 34 34 35 35 35 34 35 36 35 34 34 33 33 33 33 34 35 33 31 31 31 32 32 31 32 32 32 33 32 31 31 30 30 30 30 29 29 29
26 26 27 28 29 29 29 28 28 27 28 28 29 30 30 29 28 27 26 26 27 27 28 28 28 28 29 29 29 29 29 29 29 29 29 29 29 29 29 29 29 29 29 30 30 30 29 29 29 29 29 29 29 29 29 29 29 29 29 30 31 31 31 32 33 33 34 34 35 35 35 35 35 35 35 34 33 33 33 33 33 33 31 31 31 32 31 31 31 31 31 32 32 32 31 31 31 30 30 29 29 29 29
25 26 26 27 27 28 28 28 27 27 27 28 29 30 29 29 29 28 27 27 28 28 29 29 29 28 29 29 29 29 29 30 30 30 30 30 30 30 30 30 30 30 30 30 31 31 30 30 30 29 29 30 30 30 30 30 30 30 31 31 31 31 31 31 32 32 33 34 34 35 35 35 35 35 35 34 33 33 33 32 32 31 31 31 31 31 31 31 31 31 31 32 32 31 31 31 31 30 30 30 29 29 29
25 26 25 26 27 27 27 27 27 27 27 28 29 29 29 30 30 29 29 29 29 29 30 29 29 29 29 29 29 29 29 30 30 30 30 30 30 29 29 30 30 30 31 31 31 31 31 31 30 30 30 31 31 31 32 32 32 32 32 32 32 31 31 31 31 31 32 33 34 34 34 35 35 35 35 34 33 33 33 32 32 31 31 31 31 31 31 31 31 31 32 32 32 31 31 31 31 31 31 31 30 30 29
26 26 26 26 26 27 27 27 27 27 28 28 29 29 30 30 30 30 30 30 29 30 30 30 29 29 29 29 29 29 29 29 29 29 29 29 29 29 29 29 29 30 30 30 30 31 31 31 31 31 31 31 31 32 33 33 33 33 33 33 33 32 32 32 31 31 31 32 33 34 34 35 35 35 34 33 33 33 32 32 32 32 32 32 32 32 32 32 32 33 33 33 33 33 33 33 32 32 32 32 31 30 30
26 26 26 26 26 27 27 28 28 28 29 29 30 30 31 31 31 31 31 31 31 31 31 30 30 29 29 29 29 29 29 29 29 29 29 29 29 29 29 29 29 29 30 31 31 31 31 31 32 32 33 33 33 33 33 33 33 33 33 33 33 33 33 33 32 32 31 32 33 34 34 34 34 34 33 33 33 33 33 33 33 33 33 33 34 34 34 34 34 34 34 34 35 35 34 34 34 34 34 33 32 31 30
26 26 26 26 27 28 28 29 29 29 30 30 31 31 32 32 33 33 33 32 32 32 31 31 30 29 29 29 29 29 29 29 29 29 29 29 29 29 29 28 29 29 30 31 32 32 33 33 33 33 34 34 34 34 34 34 34 34 34 34 34 34 33 33 33 32 32 32 33 33 34 34 33 33 34 34 34 34 35 35 35 36 36 36 36 36 36 37 37 36 36 37 37 37 36 36 37 38 36 34 32 32 30
26 26 26 27 28 28 28 28 29 29 29 30 31 32 32 33 33 33 33 32 32 32 31 31 30 29 29 29 29 29 29 29 29 29 29 29 29 29 29 29 29 29 30 31 32 33 33 34 35 35 36 36 36 36 35 35 35 35 34 34 34 34 33 33 32 33 33 33 33 34 34 34 34 34 35 35 36 36 37 37 37 37 37 37 37 38 38 38 38 38 38 39 39 39 38 38 37 37 34 33 32 31 30
27 28 28 28 28 28 27 28 28 29 29 30 31 32 32 32 32 32 32 32 31 31 31 30 29 29 29 29 29 29 29 29 30 30 30 30 30 29 29 29 30 31 32 33 33 33 34 36 37 37 37 37 36 36 36 35 35 35 34 34 34 33 33 33 33 33 33 33 34 34 35 35 35 36 36 37 37 38 38 38 38 38 38 37 38 38 38 39 39 38 39 40 40 40 39 39 38 36 33 32 31 30 29
29 29 28 28 27 27 27 27 28 28 28 29 30 30 30 30 30 30 31 31 31 31 31 30 30 30 30 30 30 30 30 30 31 31 31 30 30 30 31 32 33 33 34 34 34 35 36 37 38 37 37 36 35 35 35 34 34 34 34 33 33 33 33 33 33 33 33 34 35 35 36 36 37 37 38 38 38 38 38 38 38 38 38 38 38 39 39 39 39 39 40 40 40 40 39 39 38 37 34 32 31 29 29
28 28 28 28 27 27 27 27 28 28 28 29 29 29 29 29 30 30 31 31 31 31 31 31 32 32 32 33 33 32 32 32 32 32 32 31 31 32 33 34 33 35 35 35 35 36 36 37 36 36 36 35 35 35 34 33 33 33 33 33 32 32 32 33 33 33 33 34 35 36 37 38 38 38 38 38 39 39 39 39 39 39 39 39 40 40 40 40 40 40 40 40 39 39 38 38 38 37 34 33 32 30 29
28 27 27 27 27 28 28 29 29 29 29 30 30 30 30 30 30 31 31 32 32 32 32 33 33 34 34 34 34 34 33 33 33 33 33 33 33 34 34 33 34 36 35 35 35 35 35 35 36 36 36 35 35 35 34 33 33 32 32 32 32 32 32 33 33 33 33 34 36 37 38 38 38 38 38 39 39 39 40 40 40 40 40 40 40 40 40 40 40 40 40 40 40 39 39 38 38 36 33 32 31 30 29
28 27 28 28 29 29 30 30 31 31 31 31 31 31 32 32 32 32 32 32 33 33 33 34 34 35 35 35 35 34 34 34 34 33 33 33 33 32 30 30 32 32 33 33 34 33 34 34 35 35 35 34 34 33 33 32 32 32 32 32 32 32 33 33 33 33 34 35 37 38 38 38 39 39 39 39 39 39 40 40 40 40 40 40 40 40 40 40 40 39 40 40 39 39 39 38 36 34 32 30 29 28 29
28 28 29 29 29 30 31 32 32 33 33 33 33 33 33 33 34 34 34 35 35 36 35 35 35 36 36 35 35 35 35 34 34 34 33 33 32 29 27 27 27 29 30 31 31 31 31 32 32 33 33 33 32 31 31 31 31 31 32 32 32 33 33 33 33 34 35 36 37 38 38 38 39 39 39 40 40 40 40 40 40 40 40 40 40 40 40 40 40 39 39 39 39 38 39 37 34 31 30 29 28 28 28
28 29 29 30 30 31 32 32 33 33 33 34 34 35 35 36 37 37 37 38 38 38 37 36 36 36 36 36 35 35 35 34 34 33 33 31 30 28 27 27 28 29 30 30 30 30 30 30 30 30 31 31 32 31 31 31 31 31 31 32 32 33 33 33 34 35 36 37 37 38 38 38 39 39 40 40 40 40 40 40 40 40 40 40 40 40 40 40 39 40 39 39 39 38 37 34 31 28 28 28 28 28 29
29 30 31 31 32 32 32 33 33 34 34 35 36 37 37 38 38 39 38 38 38 38 38 37 37 36 36 36 36 35 34 34 33 33 31 29 28 27 27 29 29 29 30 30 30 30 30 30 30 30 31 31 31 31 31 31 32 31 31 32 33 33 33 33 34 36 37 37 38 38 38 39 39 39 39 40 40 40 40 40 40 40 40 40 40 40 40 40 39 39 39 38 36 34 31 29 28 27 27 27 27 28 28
30 31 32 33 33 33 33 34 34 35 36 36 37 38 38 39 39 39 39 39 39 38 38 38 37 37 36 36 35 34 33 33 32 31 29 28 27 27 28 29 29 29 29 29 29 29 30 30 30 30 30 30 30 30 31 31 32 32 32 32 33 33 33 34 35 36 37 38 38 38 39 39 39 39 39 39 39 39 39 39 40 40 40 40 40 40 40 39 39 38 36 33 31 29 28 27 26 26 26 26 26 26 26
31 32 33 33 34 35 35 35 36 37 38 38 39 39 40 40 40 40 40 39 39 38 38 38 37 37 36 35 34 33 33 32 31 29 27 26 26 27 28 29 29 29 29 29 29 29 29 29 29 29 29 29 30 30 30 30 31 31 32 33 33 33 34 35 36 37 38 38 38 39 39 39 39 40 39 39 39 39 39 40 40 40 40 39 39 39 38 38 36 34 31 29 28 27 26 25 25 24 24 24 24 24 23
33 33 34 35 35 36 37 38 38 38 39 39 40 40 40 41 41 40 39 39 39 38 38 38 37 37 35 34 33 32 31 30 29 28 26 25 26 27 28 28 28 28 28 28 28 28 28 28 28 28 29 29 29 29 29 30 30 31 32 33 33 34 35 35 36 37 38 38 38 38 39 39 40 40 39 39 39 39 40 40 40 39 39 39 38 38 36 34 31 29 27 25 24 24 24 24 23 23 22 22 22 22 21
34 34 35 36 37 37 38 38 39 40 40 40 40 40 40 40 40 40 39 39 38 38 38 38 37 36 34 33 31 30 30 29 28 26 25 26 26 27 27 27 27 27 27 27 27 27 27 27 27 28 28 28 28 29 29 29 30 31 31 32 33 34 34 35 36 37 38 38 38 39 39 39 40 40 40 39 39 40 39 39 39 39 38 38 37 36 33 30 27 24 23 22 22 21 22 22 22 22 21 21 21 21 21
35 36 36 37 38 38 38 39 39 40 40 40 40 40 40 40 40 40 39 39 38 38 38 38 37 35 33 31 29 29 29 28 27 26 26 26 26 26 26 26 26 26 26 26 26 26 27 27 27 27 28 28 28 28 29 29 29 30 30 31 32 33 34 35 36 37 38 38 39 39 39 39 40 40 40 39 39 39 39 38 38 38 37 36 34 33 30 27 24 22 21 21 21 21 22 22 22 22 22 22 22 22 22
36 37 38 38 39 39 39 39 39 39 40 40 40 40 40 40 40 40 39 39 38 38 38 37 36 33 31 29 28 27 27 26 25 25 26 26 26 26 26 26 25 26 26 26 26 26 26 26 27 27 27 27 28 28 28 28 28 29 29 29 30 32 33 34 35 36 37 38 38 39 39 39 39 39 39 39 38 38 38 38 37 36 35 33 31 29 26 25 24 22 22 22 22 22 23 23 23 24 23 23 23 23 23
37 38 38 39 39 39 39 39 39 39 40 40 40 40 40 40 40 39 39 38 38 38 38 37 34 31 29 27 26 26 25 25 25 24 25 25 25 25 25 25 25 25 25 25 26 26 26 26 26 26 27 27 27 27 27 27 27 28 28 28 29 29 31 33 34 35 36 36 37 37 37 38 38 38 38 38 38 37 37 36 35 33 32 29 27 24 24 24 24 24 24 24 24 24 24 24 24 24 24 24 24 23 23
38 38 39 39 39 39 39 39 39 39 40 40 40 40 40 40 40 39 38 38 38 38 38 36 33 29 27 25 24 24 24 24 24 24 24 24 25 25 25 25 25 25 25 25 26 26 26 26 26 26 26 26 26 26 26 26 27 27 27 28 28 29 29 30 31 32 33 33 33 33 34 35 35 36 36 36 35 35 34 33 31 29 27 25 24 23 23 24 24 25 25 25 25 25 25 25 25 24 24 24 24 24 24
38 38 38 38 38 39 39 39 39 39 40 40 40 40 40 40 39 39 38 38 38 39 38 35 31 27 25 24 24 24 24 24 24 24 24 24 24 25 25 25 25 25 25 25 25 26 25 25 25 25 25 25 25 26 26 26 27 27 27 27 28 29 29 29 30 30 31 31 31 31 31 32 32 32 32 32 32 31 30 28 27 25 24 24 24 24 24 25 25 25 26 26 25 25 25 25 25 24 24 24 24 24 24
38 38 38 38 38 38 38 39 39 39 40 40 40 40 40 39 39 38 38 38 39 39 38 34 30 25 24 23 23 23 23 23 23 23 23 24 24 24 25 25 25 25 25 25 26 25 25 25 25 25 25 25 25 26 26 26 27 27 27 28 28 29 29 30 30 30 30 30 30 30 30 30 29 29 29 28 28 27 26 25 24 24 24 25 25 26 26 26 27 27 26 26 26 25 25 25 25 25 25 25 25 25 25
38 38 38 38 38 38 38 38 39 39 39 39 39 39 39 39 39 38 38 38 39 39 37 33 29 24 24 23 23 23 22 22 22 23 23 23 24 24 25 25 25 26 26 26 26 26 26 26 26 26 25 25 25 26 26 27 28 28 29 30 30 31 31 31 30 30 29 29 29 29 29 29 28 28 27 26 26 25 25 25 25 26 26 27 28 28 28 28 27 27 27 26 26 26 26 26 26 26 26 26 26 26 26
38 38 38 37 37 38 38 38 39 39 39 39 39 39 39 39 39 39 38 39 39 38 36 32 27 24 23 23 23 22 22 22 22 22 23 23 24 24 25 25 25 26 26 26 26 26 25 25 25 25 25 26 26 27 28 29 30 31 33 33 34 34 34 33 33 33 32 31 30 29 29 28 27 27 27 27 26 26 27 27 28 28 29 29 29 29 28 28 28 27 27 27 27 27 27 27 27 27 27 27 27 27 27
38 38 37 37 37 38 38 38 38 38 38 38 38 39 39 39 39 39 39 39 39 38 34 30 26 24 23 24 24 23 22 22 23 23 23 23 24 24 24 25 25 26 26 25 25 25 25 25 25 25 27 28 29 29 30 32 33 34 34 35 36 36 36 36 36 35 34 33 33 32 30 29 28 28 27 27 28 28 28 29 29 29 29 29 29 28 28 28 28 27 27 27 27 27 27 27 27 27 27 26 26 26 26
38 38 37 37 37 37 37 38 38 38 38 38 39 39 39 39 39 39 39 39 39 36 31 28 25 24 24 24 24 24 23 23 24 24 24 24 24 24 24 25 25 25 25 25 25 25 25 26 27 28 29 30 31 32 33 33 34 35 35 36 36 36 36 36 36 36 36 35 34 33 31 29 28 28 28 29 29 29 30 30 30 30 29 29 29 28 28 28 27 27 27 27 27 27 26 26 26 27 26 26 26 25 25
38 37 37 37 37 37 37 37 38 38 38 38 39 39 40 39 39 39 39 39 38 35 31 28 25 25 26 26 26 24 24 24 25 25 25 25 25 24 24 25 25 25 25 25 26 27 27 29 29 31 31 32 33 33 34 34 34 34 35 36 36 36 36 36 36 36 36 35 34 32 30 29 29 29 30 30 31 31 31 31 30 30 29 29 28 28 28 28 28 28 28 27 27 26 26 26 25 25 25 25 24 24 24
38 38 38 38 37 37 37 38 38 38 38 39 39 40 40 40 39 39 39 38 37 34 31 29 27 27 29 28 27 25 25 26 26 27 27 26 26 25 25 25 26 26 27 28 29 29 30 31 32 32 32 33 33 34 34 35 35 35 35 36 36 36 36 36 36 36 36 35 33 32 30 30 30 31 32 32 32 31 31 31 30 29 29 29 28 28 29 31 32 31 30 29 27 26 25 25 25 24 24 24 24 24 23
38 38 38 38 38 38 38 38 38 38 38 39 39 40 40 40 39 39 39 38 35 32 29 29 29 29 30 30 29 27 27 27 28 28 27 27 27 26 27 27 28 29 29 30 31 32 33 34 34 34 34 34 34 35 35 35 36 36 36 36 36 36 36 36 36 36 35 34 33 31 31 32 32 33 33 32 32 32 31 30 30 29 28 28 28 29 30 32 33 33 33 31 28 26 25 24 24 24 23 23 23 22 22
38 38 38 39 39 38 38 38 38 38 39 39 39 40 40 40 40 39 38 36 33 30 29 29 30 32 33 32 30 28 28 28 28 28 28 27 27 27 28 29 30 31 33 33 34 35 35 35 35 35 35 35 36 36 36 36 36 36 36 36 36 36 36 36 35 35 34 33 32 32 33 33 33 33 33 33 33 32 31 30 29 28 27 27 27 29 31 32 33 33 33 32 30 27 25 24 24 23 22 21 21 20 20
38 39 40 40 40 40 39 39 39 39 39 39 40 40 40 40 40 39 37 34 32 30 31 32 33 34 35 34 32 29 28 28 28 28 28 27 27 28 29 30 31 33 34 34 35 35 35 34 34 35 35 36 36 36 36 37 37 37 36 36 35 35 34 34 33 33 32 32 33 33 33 33 33 34 34 34 33 32 30 29 27 27 27 27 28 30 31 31 32 31 32 32 31 29 25 24 23 21 20 20 19 19 19
40 40 41 41 41 41 40 40 40 40 40 40 40 40 40 40 39 38 36 33 32 32 33 34 35 36 36 35 33 31 31 30 29 29 28 28 28 28 29 31 32 33 33 33 33 34 34 33 34 34 34 35 36 36 36 36 36 36 35 35 34 33 33 33 32 32 32 33 33 34 34 34 34 34 34 33 32 30 28 27 27 26 26 26 27 29 29 29 30 30 31 31 31 29 26 23 20 20 20 19 19 19 19
41 42 42 42 42 42 42 41 41 41 41 41 41 41 41 40 39 37 34 33 33 33 35 36 37 37 37 36 35 34 32 31 30 30 29 29 29 29 30 31 32 33 33 33 33 33 33 33 33 33 34 35 35 36 36 35 35 34 33 33 33 32 32 32 32 31 33 33 34 34 35 34 34 34 33 31 29 28 27 26 25 25 24 24 25 27 28 28 28 29 30 31 32 32 27 23 20 19 19 19 20 20 20
42 42 42 42 43 43 42 42 42 42 42 42 42 42 41 39 37 35 34 34 34 35 36 37 37 37 37 36 35 34 32 30 30 30 30 30 31 31 31 32 32 33 33 33 33 33 33 33 33 33 34 34 35 35 34 33 33 33 32 32 31 31 31 31 31 32 33 34 34 34 34 34 33 31 29 28 27 26 25 24 23 22 21 21 23 26 26 27 28 28 30 32 33 33 28 24 20 20 20 20 20 21 21
42 42 43 43 44 44 44 43 43 43 42 42 42 42 39 36 34 33 34 34 35 36 37 37 37 36 36 35 34 33 32 31 30 30 31 31 31 30 31 31 32 32 33 33 33 33 33 33 33 33 33 33 33 32 32 32 31 31 30 30 30 30 31 31 32 33 33 33 33 33 32 31 29 28 27 26 25 24 22 21 20 20 19 20 22 26 26 27 28 29 30 31 32 32 29 24 21 20 20 20 20 21 21
43 44 45 45 45 45 45 44 44 43 43 42 42 39 36 34 33 33 33 35 36 37 37 37 36 35 35 34 33 33 32 31 31 31 31 31 31 31 31 31 32 32 33 33 33 32 32 32 32 32 31 30 30 30 30 30 30 30 30 30 31 32 32 32 32 32 32 31 31 30 29 27 26 25 24 23 22 21 20 19 19 19 18 20 23 25 26 27 28 29 30 30 31 30 27 24 21 20 20 21 21 22 22
45 45 45 45 45 45 44 44 43 42 42 41 40 38 35 34 34 34 35 36 36 37 36 36 35 34 33 33 33 32 32 32 32 32 33 33 33 32 31 31 31 32 32 32 32 31 31 31 31 30 29 29 29 30 30 30 31 31 32 31 31 31 31 30 30 29 29 29 28 27 25 24 23 22 21 20 19 18 18 18 18 18 17 20 24 25 27 28 29 29 29 28 28 29 26 23 21 20 20 20 21 22 22